Location: Les Salelles
(44.4192°N, 4.1044°E)
Time: 19:57:10
(UTC+00:00)

SAR-Lupe-4 - Pass Details

Date: 20 January 2021
Orbit: 480 x 484 km, 98.2° (Epoch: 27 February)

Event Time Altitude Azimuth Distance (km) Brightness Sun altitude
Exits shadow 18:31:03 30° 5° (N) 894 4.7 -20.2°
Maximum altitude 18:32:42 74° 286° (WNW) 506 3.7 -20.5°
Drops below altitude 10° 18:36:15 10° 200° (SSW) 1,655 6.6 -21.1°
Sets 18:38:17 0° 199° (SSW) 2,529 7.6 -21.4°
